X-CUBESAT (42707 NORAD) Tracking and Keplerian Element Data
This shows tracking and keplerian element data for the satellite.
Feedback or suggestion? Click here.
Element | Value |
Catalog | 42707 |
Name | X-CUBESAT |
Epoch Orbit | 9866 |
Epoch Day | 34.96093632 |
Epoch Year | 2019 |
RAAN | 225.9993 |
Inclination | 51.6151 |
Eccentricity | 0.0006204 |
Argument of Perigee | 290.2952 |
Mean Anonmoly | 69.7401 |
Mean Motion | 16.38701088 |
Decay Rate | 0.08699549 |
L1 | 1 42707U 98067LQ 19034.96093632 .08699549 12398-4 73318-3 0 9997 |
L2 | 2 42707 51.6151 225.9993 0006204 290.2952 69.7401 16.38701088 98669 |
Live tracking and technical data element details for X-CUBESAT (NORAD 42707). X-CUBESAT can be tracked NOW for your location showing map with azimuth and elevation plus other details from your city location.
Track the satellite on the map from your city or location and see movement details for azimuth, elevation, latitude, longitude, range, height, and movement on the map or in text.
IsCatalogInMostPopularTable: catalog: 42707, numindb: 640
Update: records affected: 1
GetName: 42707 X-CUBESAT
Hit Count: updated at: Sat, 23 Jan 2021 03:28:31 GMT